Hlavní strana
METAR-TAF:

METAR-TAF

Letiště :

Ljungbyhed, Švédsko

zeměpisná šířka: 56-04N, zeměpisná délka: 013-12E, výška: 43 m

Aktuální stav počasí

Zpráva byla vytvořena před 19 minutami, v 03:50 UTC
Západojihozápadní vítr 6 kt, proměnlivý mezi jihojihozápadním a západním
Teplota 1°C
Vlhkost vzduchu 100%
Tlak 1017 hPa
Viditelnost: 6000 m
kouřmo

METAR: ESTL 210350Z AUTO 24006KT 210V280 6000 BR OVC005/// 01/01 Q1017

Čas: 05:09 (04:09 UTC)


TAF: chybějící

Stav a předpovědi počasí z více než 4 000 letišť (zprávy METAR a TAF).

Červené a žluté tečky na mapě představují dostupné meteorologické stanice.

Když kurzor umístíte na tečku, zobrazí se název stanice.

Pak kliknutím zobrazíte stav a předpověď počasí.

Chcete-li změnit mapu, kliknutím na zelené tlačítko se znaménkem +mapu přiblížíte, kliknutím na zelené tlačítko se znaménkem – mapu oddálíte a kliknutím na zelené šipky přejdete na sousední mapy.


METAR-TAF: